Regional Weather Roundup
Issued by NWS

Home | Current Version | Previous Version | Graphics & Text | Print | Product List | Glossary On
Versions: 1 2 3 4 5 6 7 8 9 10 11 12 13 14 15 16 17 18 19 20 21 22 23 24 25 26 27 28 29 30 31 32 33 34 35 36 37 38 39 40 41 42 43 44 45 46 47 48 49 50
000
ASUS45 KTFX 310804
RWRMT
MONTANA REGIONAL WEATHER ROUNDUP
NATIONAL WEATHER SERVICE GREAT FALLS MT
200 AM MDT MON AUG 31 2015

NOTE: "FAIR" INDICATES FEW OR NO CLOUDS BELOW 12000 FEET WITH NO
SIGNIFICANT WEATHER AND/OR OBSTRUCTIONS TO VISIBILITY.

MTZ001>007-043-310900-
WEST OF THE DIVIDE

CITY           SKY/WX    TMP DP  RH WIND       PRES   REMARKS
KALISPELL      MOSUNNY   47  43  86 S5        29.99F
MISSOULA       PTCLDY    43  41  93 SW3       30.08R
BUTTE          PTCLDY    44  38  79 CALM      30.12R
MULLAN PASS    CLOUDY    41  39  93 VRB5G18   30.07S
DEER LODGE       N/A     45  39  81 CALM      30.12S
EUREKA           N/A     54  43  66 E12       29.97R
HAMILTON         N/A     50  41  71 E2        30.08S
LIBBY            N/A     48  48 100 W3        29.98F VSB 1/4
$$

MTZ008-052>055-310900-
SOUTHWEST MONTANA

CITY           SKY/WX    TMP DP  RH WIND       PRES   REMARKS
BOZEMAN        CLEAR     45  39  79 NE7       30.05S
DILLON         PTCLDY    50  34  54 S10       30.07S
W YELLOWSTONE  CLEAR     48  23  37 SW8       30.13R
$$

MTZ009-010-012-014-046-048-049-054-310900-
EAST SLOPES AND CENTRAL MONTANA

CITY           SKY/WX    TMP DP  RH WIND       PRES   REMARKS
CUT BANK       CLEAR     53  35  50 W21G32    29.84F
GREAT FALLS    CLEAR     52  32  46 S14       29.92S
HELENA         PTCLDY    55  37  50 SW9       30.04R
$$

MTZ011-013-016-021-045-047-050-051-310900-
NORTH CENTRAL MONTANA

CITY           SKY/WX    TMP DP  RH WIND       PRES   REMARKS
HAVRE          CLEAR     52  39  61 MISG      29.84R
LEWISTOWN      PTCLDY    52  43  71 W10       29.94R
N BAR RANCH      N/A     48  45  87 NW8       29.95S
CHINOOK          N/A     55  43  62 SW7       29.83R
FORT BENTON      N/A     57  34  41 S7        29.89S
$$

MTZ017>020-022>027-061-062-310900-
NORTHEAST MONTANA

CITY           SKY/WX    TMP DP  RH WIND       PRES   REMARKS
GLASGOW        LGT RAIN  57  52  83 N9        29.78F
JORDAN           N/A     58  49  72 NW7       29.83F
SIDNEY         CLOUDY    64  57  77 NW7       29.77R
WOLF POINT     MOCLDY    63  54  72 W20G31    29.80R
PLENTYWOOD       N/A     64  52  63 W17G23    29.76R
POPLAR           N/A     64  55  72 W16G26    29.77R
$$

MTZ028>42-056>058-310900-
SOUTHCENTRAL AND SOUTHEAST MONTANA

CITY           SKY/WX    TMP DP  RH WIND       PRES   REMARKS
BAKER          CLOUDY    64  58  80 N6        29.76F
BILLINGS       PTCLDY    59  41  51 SW3       29.97R
LIVINGSTON     CLEAR     56  37  49 W17       30.01F
MILES CITY     MOCLDY    64  52  64 N23G36    29.82R
FORSYTH          N/A     64  46  52 NW9G17    29.86R
$$

REGIONAL REPORTS...DAKOTAS

CITY           SKY/WX    TMP DP  RH WIND       PRES   REMARKS
WILLISTON      LGT RAIN  64  58  80 W12       29.73R
MINOT          CLOUDY    65  54  67 SW7       29.70R
DICKINSON      CLOUDY    67  50  54 E10       29.66F
BISMARCK       CLOUDY    71  61  70 SE6       29.62S HAZE
GRAND FORKS    CLEAR     69  65  86 S14       29.64F
FARGO          CLEAR     68  60  75 S16G25    29.69F
BUFFALO SD       N/A     67  52  58 MISG      29.67R
RAPID CITY     MOCLDY    74  51  44 SW7       29.77F
$$

REGIONAL REPORTS...WYOMING/IDAHO/WASHINGTON

CITY           SKY/WX    TMP DP  RH WIND       PRES   REMARKS
GILLETTE       CLOUDY    67  47  48 W10       29.86R
SHERIDAN       CLOUDY    63  48  58 NW28G39   29.91R
BUFFALO WY     CLOUDY    70  40  33 W10       29.93R
CODY           PTCLDY    64  28  25 NW8       29.99R
YELLOWSTONE LA   N/A     38  27  64 CALM      30.20F
IDAHO FALLS    CLEAR     56  33  42 SW12      30.06R
SALMON         PTCLDY    52  39  62 S5        30.08R
BOISE          CLEAR     60  43  53 NW6       30.04R
SPOKANE        MOCLDY    53  43  68 S10       29.99R
$$

REGIONAL REPORTS...ALBERTA

CITY           SKY/WX    TMP DP  RH WIND       PRES   REMARKS
$$

REGIONAL REPORTS...SASKATCHEWAN

CITY           SKY/WX    TMP DP  RH WIND       PRES   REMARKS
$$



USA.gov is the U.S. government's official web portal to all federal, state and local government web resources and services.